Showing default

AE1D, 62618

Orbit data source: Space-Track

AE1D, 62618 is a payload satellite owned by ArkEdge (JP) in SSO that was launched on Tue, 14 Jan 2025 UTC via an FALCON 9 launch vehicle from the Air Force Western Test Range (AFWTR). Payload-class satellites include a variety of spacecraft equipped with specific instruments for various scientific and technological missions. These include communications satellites like Starlink; space stations such as the ISS; scientific satellites like the Hubble; Earth observation satellites from companies like Planet Labs, Umbra, and HawkEye 360; GPS; miniature CubeSats for education and research; and military/defense satellites.

Loading next visibility...
Identifier
62618, 2025-009K
Orbit
SSO
Country
Flag of JPJP / JPN
Related business
Manufacturer
ArkEdge
Mission
Operational Commercial Technology
Bus & Motor
CUBESAT 6U, Unknown motor
Mass
~10 kg wet, ~10 kg dry
Launch date (UTC)
2025-01-14 (2 years ago)
Launch vehicle
FALCON 9
Launch site
Air Force Western Test Range (AFWTR)
Object type
Payload
Rocket body
Debris
Shape & HBR
Box + 2 Pan, 0.3 m
Radar Cross Section
0.080 m², Medium (>0.1 m² and < 1m²)

Expand to show TLE details & history
Last TLE update: 13 hours ago

TLE from 13 hours ago
0 AE1D
1 62618U 25009K   26208.49331480  .00165654  00000-0  13091-2 0  9992
2 62618  97.3935 300.3632 0004974 185.1388 174.9825 15.70854616 85750
Epoch: 2026-07-27T11:50Z
TLE epoch observation values (Epoch: 2026-07-27T11:50:22.398Z)
Latitude
0.00002°
Longitude
177.59377°
Altitude
362.95 km
Speed
7.69 km/s
True Right ascension
20h 01m 27s
True Declination
0° 00' 00"
Sunlit
Object was in full shadow at epoch
Visualization orbit readout
Latitude
Unknown
Longitude
Unknown
Altitude
Unknown
Speed
Unknown
Apparent Right ascension
Unknown
Apparent Declination
Unknown
Sunlit
N/A
Visualization observer readout
Local Sidereal Time
14:15:32
Azimuth
Unknown
Elevation
Unknown
Doppler factor
Unknown
Orbital elements
Apogee altitude
356.699 km
Perigee altitude
350.003 km
Semi-major axis
6,731.488 km
Eccentricity
0.0005
Inclination
97.3935°
RAAN
300.3632°
Arg. of periapsis
185.1388°
True anomaly
174.98748°
Mean anomaly
174.9825°
Eccentric anomaly
174.98499°
Mean motion
3.92986 °/min
Orbital period
91.61 mins
BSTAR
0.0013091
Loading maneuver chart data...
Computing Atmospheric mass density...
Loading historical data...
Loading historical data...
Loading historical data...
Loading historical data...
Loading historical data...
Loading historical data...
Loading historical data...

Documentation

Showing up to 5 results
|